Total_Precipitation_Accumulation
0.14 0.23 0.56 0.78 0.86 0.87 0.88 0.88 0.85 0.80 0.77 0.80 0.86 0.96 0.98 1.03 1.04 0.99 1.04 1.08 1.17 1.33 1.46 1.52 1.58 1.60 1.44 1.21 1.04 0.91 0.82 0.76 0.73 0.75 0.78 0.90 0.93 0.84 0.71 0.59 0.48 0.62 0.92
0.14 0.22 0.52 0.70 0.82 0.86 0.89 0.92 0.88 0.82 0.80 0.84 0.87 0.95 0.98 0.98 1.06 1.10 1.14 1.19 1.29 1.41 1.42 1.49 1.53 1.49 1.35 1.14 1.00 0.84 0.73 0.65 0.53 0.46 0.47 0.56 0.78 0.82 0.71 0.63 0.60 0.82 0.97
0.14 0.21 0.43 0.63 0.80 0.86 0.92 0.91 0.86 0.84 0.86 0.94 0.97 0.99 1.03 1.02 1.05 1.14 1.22 1.28 1.34 1.41 1.43 1.44 1.40 1.39 1.29 1.16 1.06 0.91 0.73 0.64 0.50 0.37 0.32 0.35 0.57 0.82 0.80 0.74 0.75 0.93 0.99
0.15 0.21 0.35 0.59 0.81 0.93 0.98 0.98 0.93 0.91 0.96 1.05 1.09 1.10 1.12 1.13 1.13 1.18 1.24 1.29 1.28 1.30 1.39 1.36 1.37 1.36 1.28 1.21 1.07 0.89 0.74 0.61 0.45 0.32 0.22 0.29 0.55 0.93 0.92 0.84 0.81 0.92 0.97
0.15 0.21 0.37 0.63 0.86 1.06 1.10 1.11 1.07 1.04 1.05 1.13 1.18 1.22 1.23 1.27 1.24 1.25 1.23 1.21 1.20 1.15 1.19 1.20 1.29 1.31 1.25 1.16 1.08 0.95 0.79 0.62 0.42 0.27 0.21 0.33 0.60 0.95 0.92 0.88 0.86 0.88 0.91
0.18 0.25 0.42 0.68 0.94 1.07 1.10 1.09 1.13 1.17 1.18 1.24 1.29 1.33 1.37 1.42 1.36 1.33 1.25 1.23 1.16 1.13 1.15 1.17 1.22 1.25 1.20 1.11 1.04 1.03 1.02 0.81 0.48 0.29 0.25 0.32 0.48 0.80 0.93 1.00 1.01 0.93 0.90
0.24 0.34 0.48 0.76 1.03 1.13 1.18 1.19 1.22 1.33 1.40 1.38 1.39 1.47 1.53 1.54 1.47 1.37 1.30 1.26 1.24 1.22 1.23 1.25 1.27 1.29 1.17 1.07 1.02 1.00 1.00 0.81 0.53 0.40 0.30 0.30 0.43 0.74 1.06 1.18 1.22 1.08 0.99
0.28 0.41 0.58 0.91 1.09 1.18 1.27 1.30 1.31 1.42 1.55 1.60 1.61 1.70 1.72 1.65 1.56 1.51 1.39 1.31 1.34 1.33 1.30 1.29 1.32 1.36 1.27 1.14 1.01 0.96 0.90 0.66 0.54 0.55 0.47 0.44 0.55 0.88 1.15 1.34 1.31 1.16 1.09
0.43 0.56 0.68 0.93 1.10 1.26 1.41 1.47 1.46 1.54 1.61 1.66 1.81 1.84 1.80 1.76 1.68 1.63 1.51 1.38 1.40 1.40 1.42 1.36 1.29 1.20 1.15 1.17 1.15 1.02 0.85 0.66 0.55 0.66 0.60 0.71 0.68 0.97 1.17 1.31 1.37 1.27 1.18
0.60 0.72 0.86 1.00 1.15 1.30 1.48 1.60 1.67 1.71 1.75 1.82 1.88 1.84 1.82 1.88 1.87 1.77 1.58 1.47 1.44 1.44 1.46 1.42 1.33 1.18 1.07 1.09 1.17 1.07 0.85 0.71 0.57 0.63 0.83 0.79 0.77 1.13 1.32 1.33 1.38 1.33 1.27
0.81 0.89 1.08 1.17 1.25 1.40 1.54 1.61 1.87 2.01 2.05 2.06 2.05 1.98 2.02 2.00 1.91 1.79 1.58 1.48 1.43 1.46 1.43 1.46 1.41 1.31 1.18 1.09 1.14 1.07 0.85 0.72 0.61 0.65 0.71 0.69 0.83 1.16 1.48 1.54 1.51 1.43 1.31
0.79 0.97 1.16 1.38 1.48 1.62 1.67 1.80 2.01 2.12 2.22 2.22 1.95 1.96 2.03 1.90 1.86 1.77 1.76 1.75 1.57 1.53 1.50 1.45 1.44 1.40 1.28 1.09 1.04 0.99 0.78 0.67 0.72 0.63 0.62 0.64 0.80 1.13 1.41 1.60 1.69 1.63 1.47
0.82 0.97 1.21 1.49 1.72 1.84 1.80 1.78 1.93 2.09 2.19 2.24 1.98 1.84 1.87 1.93 1.95 1.94 1.81 1.85 1.76 1.62 1.63 1.54 1.49 1.34 1.20 1.11 1.06 0.93 0.73 0.65 0.64 0.59 0.60 0.68 0.76 1.00 1.30 1.53 1.69 1.76 1.71
0.95 1.05 1.26 1.53 1.82 1.95 2.00 1.91 1.90 2.02 2.08 2.13 2.06 1.97 1.90 1.94 1.90 1.78 1.70 1.59 1.56 1.46 1.45 1.45 1.36 1.25 1.15 1.06 1.03 0.98 0.85 0.72 0.60 0.59 0.56 0.62 0.71 0.84 1.07 1.31 1.50 1.71 1.84
0.97 1.11 1.34 1.55 1.80 2.06 2.20 2.18 2.10 2.14 1.98 2.05 2.17 2.23 2.09 1.94 1.89 1.83 1.70 1.62 1.53 1.44 1.37 1.34 1.25 1.18 1.09 1.04 1.00 0.99 0.92 0.77 0.66 0.61 0.56 0.61 0.62 0.70 0.90 1.14 1.39 1.69 1.97
0.94 1.11 1.40 1.64 1.80 2.10 2.25 2.24 2.23 2.30 2.21 2.19 2.20 2.19 2.25 2.20 2.04 1.98 1.85 1.68 1.59 1.51 1.40 1.36 1.29 1.23 1.13 1.04 0.95 0.87 0.88 0.87 0.78 0.75 0.67 0.63 0.59 0.58 0.74 0.99 1.27 1.58 1.98
0.94 1.13 1.42 1.66 1.88 2.08 2.17 2.24 2.29 2.33 2.38 2.32 2.26 2.26 2.34 2.29 2.23 2.14 2.02 1.88 1.68 1.61 1.57 1.48 1.43 1.36 1.28 1.12 0.99 0.90 0.84 0.86 0.82 0.80 0.77 0.70 0.66 0.60 0.64 0.84 1.08 1.38 1.72
1.06 1.14 1.35 1.63 1.83 2.04 2.17 2.22 2.22 2.32 2.37 2.41 2.43 2.36 2.36 2.43 2.43 2.43 2.21 2.05 1.82 1.73 1.69 1.65 1.55 1.47 1.36 1.23 1.14 1.01 0.89 0.85 0.84 0.84 0.83 0.76 0.74 0.69 0.67 0.72 0.83 1.08 1.43
1.14 1.21 1.39 1.60 1.74 1.92 2.19 2.35 2.27 2.28 2.39 2.46 2.48 2.51 2.38 2.42 2.49 2.57 2.52 2.30 2.11 1.99 1.82 1.72 1.60 1.51 1.44 1.35 1.28 1.19 1.05 0.94 0.90 0.92 0.87 0.77 0.71 0.71 0.72 0.74 0.79 0.89 1.14
1.25 1.32 1.43 1.60 1.77 1.94 2.28 2.49 2.57 2.47 2.46 2.48 2.42 2.38 2.40 2.40 2.39 2.43 2.53 2.51 2.41 2.31 2.13 1.94 1.81 1.63 1.50 1.44 1.45 1.43 1.26 1.10 1.01 0.98 0.96 0.87 0.75 0.68 0.71 0.76 0.80 0.82 0.94
1.31 1.35 1.50 1.56 1.72 1.95 2.19 2.37 2.41 2.46 2.42 2.39 2.34 2.33 2.30 2.33 2.34 2.32 2.26 2.35 2.37 2.31 2.20 2.08 1.97 1.91 1.75 1.59 1.68 1.75 1.61 1.32 1.12 1.02 0.98 0.96 0.86 0.75 0.70 0.72 0.79 0.81 0.86
1.37 1.37 1.50 1.62 1.72 1.77 1.91 2.09 2.20 2.35 2.42 2.40 2.31 2.33 2.28 2.23 2.23 2.33 2.33 2.21 2.18 2.18 2.16 2.08 1.98 1.93 1.88 1.73 1.72 1.84 1.85 1.74 1.38 1.04 0.94 0.93 0.92 0.89 0.82 0.76 0.76 0.83 0.89
1.46 1.47 1.50 1.59 1.74 1.81 1.93 2.16 2.30 2.52 2.62 2.65 2.46 2.32 2.27 2.26 2.16 2.13 2.26 2.27 2.17 2.11 2.08 2.03 1.93 1.84 1.82 1.70 1.53 1.73 1.82 1.59 1.28 1.07 0.95 0.85 0.83 0.91 0.90 0.85 0.82 0.79 0.87
1.34 1.47 1.54 1.66 1.77 1.80 1.99 2.18 2.20 2.37 2.43 2.37 2.26 2.19 2.14 2.20 2.21 2.12 2.11 2.19 2.21 2.09 1.97 1.95 1.97 1.90 1.91 1.90 1.69 1.48 1.46 1.36 1.35 1.18 1.02 0.96 0.89 0.87 0.91 0.91 0.90 0.84 0.84
1.13 1.34 1.49 1.69 1.84 1.87 1.91 2.10 2.16 2.13 2.20 2.31 2.37 2.31 2.23 2.20 2.18 2.15 2.13 2.13 2.13 2.09 1.95 1.88 1.92 1.97 1.99 1.97 1.88 1.65 1.46 1.25 1.17 1.26 1.08 0.97 1.04 1.00 0.94 0.96 0.96 0.95 0.90
1.06 1.24 1.41 1.60 1.76 1.87 1.86 1.96 2.13 2.11 2.09 2.21 2.39 2.44 2.36 2.27 2.20 2.11 2.04 2.06 2.02 1.93 1.88 1.83 1.81 1.81 1.85 1.87 1.83 1.73 1.63 1.53 1.30 1.27 1.19 0.98 0.97 0.99 1.00 1.02 1.06 1.04 0.99